| time (UTC) | temp C | wind direction | speed KPH | gust KPH | rain 1hr cm | rain 24hr cm | rain mn cm | humidity % | barometer mb |
| 20260904091527 | 11 | 52 | 0.0 | 1.6 | 0.00 | 3.58 | 0.00 | 100 | 1012.1 |
| 20260904090025 | 10 | 52 | 0.0 | 0.0 | 0.00 | 4.09 | 0.00 | 100 | 1012.1 |
| 20260904084525 | 10 | 52 | 0.0 | 0.0 | 0.00 | 4.09 | 0.00 | 100 | 1012.2 |
| 20260904083023 | 10 | 52 | 0.0 | 0.0 | 0.00 | 4.09 | 0.00 | 100 | 1012.0 |
| 20260904081521 | 11 | 53 | 0.0 | 3.2 | 0.00 | 4.09 | 0.00 | 100 | 1012.0 |
| 20260904080020 | 11 | 53 | 0.0 | 0.0 | 0.00 | 4.09 | 0.00 | 100 | 1011.7 |
| 20260904074517 | 10 | 67 | 0.0 | 3.2 | 0.00 | 4.09 | 0.00 | 100 | 1011.6 |
| 20260904073035 | 11 | 75 | 0.0 | 0.0 | 0.00 | 4.09 | 0.00 | 100 | 1011.6 |
| 20260904071515 | 11 | 75 | 0.0 | 0.0 | 0.00 | 4.09 | 0.00 | 100 | 1011.5 |
| 20260904070016 | 11 | 75 | 0.0 | 1.6 | 0.00 | 4.09 | 4.09 | 100 | 1011.5 |
| 20260904064517 | 11 | 74 | 0.0 | 0.0 | 0.00 | 4.09 | 4.09 | 100 | 1011.5 |
| 20260904063009 | 11 | 74 | 0.0 | 1.6 | 0.00 | 4.09 | 4.09 | 100 | 1011.6 |
| 20260904061511 | 11 | 85 | 0.0 | 1.6 | 0.00 | 4.09 | 4.09 | 100 | 1011.5 |
| 20260904060009 | 11 | 85 | 0.0 | 1.6 | 0.00 | 4.09 | 4.09 | 100 | 1011.4 |
| 20260904054510 | 12 | 85 | 0.0 | 8.0 | 0.00 | 4.09 | 4.09 | 100 | 1011.5 |
| 20260904053007 | 12 | 108 | 0.0 | 0.0 | 0.00 | 4.09 | 4.09 | 100 | 1011.5 |
| 20260904051510 | 12 | 109 | 0.0 | 0.0 | 0.00 | 4.09 | 4.09 | 100 | 1011.6 |
| 20260904050007 | 12 | 109 | 0.0 | 0.0 | 0.00 | 4.09 | 4.09 | 100 | 1011.6 |
| 20260904044507 | 12 | 109 | 0.0 | 1.6 | 0.00 | 4.09 | 4.09 | 100 | 1011.5 |
| 20260904043005 | 12 | 109 | 0.0 | 4.8 | 0.00 | 4.09 | 4.09 | 100 | 1011.4 |
| 20260904041504 | 12 | 110 | 0.0 | 3.2 | 0.00 | 4.09 | 4.09 | 100 | 1011.4 |
| 20260904040003 | 13 | 112 | 0.0 | 1.6 | 0.00 | 4.09 | 4.09 | 100 | 1011.4 |
| 20260904034501 | 13 | 112 | 0.0 | 3.2 | 0.00 | 4.09 | 4.09 | 100 | 1011.2 |
| 20260904033114 | 13 | 114 | 0.0 | 4.8 | 0.00 | 4.09 | 4.09 | 100 | 1010.9 |
| 20260904031558 | 13 | 85 | 0.0 | 0.0 | 0.00 | 4.09 | 4.09 | 100 | 1010.9 |
| 20260904030100 | 13 | 85 | 0.0 | 0.0 | 0.00 | 4.09 | 4.09 | 100 | 1010.6 |
| 20260904024557 | 13 | 43 | 0.0 | 0.0 | 0.00 | 4.09 | 4.09 | 100 | 1010.6 |
| 20260904023055 | 13 | 42 | 0.0 | 1.6 | 0.00 | 4.09 | 4.09 | 100 | 1010.7 |
| 20260904021555 | 13 | 44 | 1.6 | 6.4 | 0.00 | 4.09 | 4.09 | 99 | 1010.6 |
| 20260904020101 | 14 | 99 | 0.0 | 6.4 | 0.00 | 4.11 | 4.09 | 100 | 1010.7 |
| 20260904014643 | 14 | 44 | 1.6 | 6.4 | 0.00 | 4.11 | 4.09 | 100 | 1010.7 |
| 20260904013105 | 14 | 95 | 0.0 | 0.0 | 0.00 | 4.11 | 4.09 | 99 | 1010.6 |
| 20260904011603 | 14 | 95 | 0.0 | 0.0 | 0.00 | 4.11 | 4.09 | 98 | 1010.7 |
| 20260904010058 | 15 | 95 | 1.6 | 6.4 | 0.03 | 4.11 | 4.09 | 98 | 1010.6 |
| 20260904004551 | 14 | 114 | 0.0 | 4.8 | 0.15 | 4.11 | 4.09 | 97 | 1010.5 |
| 20260904003058 | 14 | 114 | 0.0 | 4.8 | 0.15 | 4.11 | 4.09 | 97 | 1010.3 |
| 20260904001550 | 13 | 74 | 0.0 | 3.2 | 0.23 | 4.11 | 4.09 | 98 | 1010.4 |
| 20260904000050 | 14 | 95 | 1.6 | 4.8 | 0.30 | 4.09 | 4.06 | 98 | 1010.4 |
| 20260903234549 | 14 | 15 | 0.0 | 6.4 | 0.18 | 3.96 | 3.94 | 97 | 1010.5 |
| 20260903233049 | 14 | 332 | 1.6 | 6.4 | 0.18 | 3.96 | 3.94 | 95 | 1010.3 |
| 20260903231548 | 15 | 324 | 4.8 | 11.3 | 0.10 | 3.89 | 3.86 | 91 | 1010.4 |
| 20260903224548 | 16 | 342 | 4.8 | 11.3 | 0.00 | 3.78 | 3.76 | 82 | 1010.0 |
| 20260903223046 | 17 | 322 | 4.8 | 14.5 | 0.00 | 3.78 | 3.76 | 81 | 1010.0 |
| 20260903221545 | 18 | 195 | 8.0 | 19.3 | 0.00 | 3.78 | 3.76 | 73 | 1010.1 |
| 20260903220042 | 17 | 151 | 1.6 | 6.4 | 0.00 | 3.78 | 3.76 | 78 | 1010.0 |
| 20260903214544 | 17 | 126 | 1.6 | 9.7 | 0.00 | 3.78 | 3.76 | 79 | 1010.0 |
| 20260903213043 | 17 | 178 | 0.0 | 14.5 | 0.00 | 3.78 | 3.76 | 78 | 1010.3 |
| 20260903211534 | 16 | 126 | 4.8 | 11.3 | 0.00 | 3.78 | 3.76 | 85 | 1010.3 |
| 20260903210033 | 15 | 140 | 4.8 | 19.3 | 0.00 | 3.84 | 3.76 | 85 | 1010.4 |
| 20260903204531 | 15 | 142 | 4.8 | 14.5 | 0.00 | 3.84 | 3.76 | 85 | 1010.3 |
| 20260903203029 | 15 | 151 | 4.8 | 16.1 | 0.00 | 3.84 | 3.76 | 88 | 1010.3 |
| 20260903201532 | 15 | 132 | 3.2 | 20.9 | 0.00 | 3.84 | 3.76 | 88 | 1010.3 |
| 20260903200025 | 14 | 125 | 9.7 | 19.3 | 0.03 | 3.84 | 3.76 | 87 | 1010.2 |
| 20260903194527 | 14 | 112 | 9.7 | 20.9 | 0.03 | 3.84 | 3.76 | 89 | 1010.2 |
| 20260903193021 | 14 | 132 | 6.4 | 22.5 | 0.03 | 3.84 | 3.76 | 93 | 1010.3 |
| 20260903191519 | 13 | 74 | 3.2 | 9.7 | 0.03 | 3.84 | 3.76 | 94 | 1010.2 |
| 20260903190019 | 13 | 155 | 6.4 | 19.3 | 0.00 | 3.86 | 3.73 | 92 | 1010.4 |
| 20260903184517 | 13 | 104 | 3.2 | 16.1 | 0.00 | 3.86 | 3.73 | 95 | 1010.5 |
| 20260903183014 | 13 | 134 | 1.6 | 12.9 | 0.00 | 3.86 | 3.73 | 98 | 1010.3 |
| 20260903181512 | 13 | 101 | 4.8 | 16.1 | 0.00 | 3.86 | 3.73 | 98 | 1010.4 |
| 20260903180035 | 13 | 134 | 3.2 | 11.3 | 0.00 | 3.96 | 3.73 | 100 | 1010.5 |
| 20260903174511 | 13 | 85 | 0.0 | 12.9 | 0.00 | 3.96 | 3.73 | 100 | 1010.6 |
| 20260903173010 | 12 | 85 | 1.6 | 12.9 | 0.10 | 3.96 | 3.73 | 100 | 1010.5 |
| 20260903171512 | 12 | 108 | 1.6 | 9.7 | 0.20 | 3.96 | 3.73 | 100 | 1010.4 |
| 20260903170013 | 11 | 133 | 4.8 | 12.9 | 0.20 | 4.06 | 3.73 | 100 | 1010.4 |
| 20260903164509 | 11 | 100 | 0.0 | 0.0 | 0.30 | 4.06 | 3.73 | 100 | 1010.4 |
| 20260903163010 | 11 | 90 | 0.0 | 3.2 | 0.23 | 3.96 | 3.63 | 100 | 1010.5 |
| 20260903161507 | 11 | 90 | 0.0 | 8.0 | 0.13 | 3.86 | 3.53 | 100 | 1010.6 |
| 20260903160005 | 11 | 120 | 3.2 | 6.4 | 0.20 | 3.91 | 3.53 | 100 | 1010.5 |
| 20260903154507 | 11 | 183 | 0.0 | 0.0 | 0.13 | 3.81 | 3.43 | 100 | 1010.3 |
| 20260903153002 | 11 | 114 | 0.0 | 8.0 | 0.13 | 3.78 | 3.40 | 100 | 1010.1 |